sat.trackr.live / text

‹ back to catalog

TOMORROW-S7

NORAD 63631 · 2025-081B

PAYLOAD ACTIVE UNKNOWN

§ Identity

Operator
Country
US
Launch date
2025-04-22
Launch site
AFETR
Launch vehicle
Mass (kg)
RCS (m²)

External: N2YO · Heavens-Above · Gunter

§ Orbital elements

Epoch: 2026-05-25T04:52:33.900960Z

Period
96.03 min
Inclination
45.3912°
Eccentricity
0.0001104
Mean motion
14.99525243 rev/d
Perigee alt
567.6 km
Apogee alt
569.1 km
Semi-major
6,946.5 km
B*
1.3521e-4
RAAN
95.1737°
Arg perigee
175.6654°
Mean anomaly
184.4233°
Rev number
5,972

§ Raw data

TOMORROW-S71 63631U 25081B   26145.20317015  .00001457  00000+0  13521-3 0  99932 63631  45.3912  95.1737 0001104 175.6654 184.4233 14.99525243 59729

JSON: /api/v1/satellites/63631 · /tle

For live sub-satellite position, see the globe view (requires WebGL).

§ Visibility from observer

Set your observer location to see the next 7 days of passes ≥ 10°. The values pass through the URL so the page stays shareable.

No JS? Fill the form by hand. The geolocation button needs JavaScript.